Stations météo

réclame
Mon MeteoGroup
Exeter Airport No. 2, Grande-Bretagne (3844): Température de l'air & dewpoint: 13.01.2020 20:00:00 - 19.01.2020 20:00:00 (GMT)Exeter Airport No. 2, Grande-Bretagne (3844): Vitesse du vent & gusts: 13.01.2020 20:00:00 - 19.01.2020 20:00:00 (GMT)Exeter Airport No. 2, Grande-Bretagne (3844): Direction du vent: 13.01.2020 20:00:00 - 19.01.2020 20:00:00 (GMT)Exeter Airport No. 2, Grande-Bretagne (3844): reduced air pressure: 13.01.2020 20:00:00 - 19.01.2020 20:00:00 (GMT)Exeter Airport No. 2, Grande-Bretagne (3844): visibility: 13.01.2020 20:00:00 - 19.01.2020 20:00:00 (GMT)Exeter Airport No. 2, Grande-Bretagne (3844): Ensoleillement: 13.01.2020 20:00:00 - 19.01.2020 20:00:00 (GMT)Exeter Airport No. 2, Grande-Bretagne (3844): Quantités de précipitations: 13.01.2020 20:00:00 - 19.01.2020 20:00:00 (GMT)
Date & Time tt [°C] td [°C] ff [km/h] ff [knt] fx [km/h] fx [knt] dd ppp [hPa] vv [km] sd [min] rr [mm]
19.01.2020 20:00:00 - - - - - - - - - - 0,0
19.01.2020 19:00:00 0,6 -0,2 2 1 - - E 1048,7 19 0 0,0
19.01.2020 18:00:00 0,8 -0,9 2 1 - - NNE 1048,2 18 0 0,0
19.01.2020 17:00:00 3,7 1,0 0 0 - - N 1047,6 24 24 0,0
19.01.2020 16:00:00 7,8 2,7 4 2 - - W 1047,5 25 60 0,0
19.01.2020 15:00:00 7,3 2,6 8 4 - - NW 1046,9 27 60 0,0
19.01.2020 14:00:00 7,3 3,5 4 2 - - N 1046,3 26 60 0,0
19.01.2020 13:00:00 6,2 3,4 8 4 - - WNW 1046,6 22 60 0,0
19.01.2020 12:00:00 3,8 2,0 5 3 - - NW 1046,7 21 60 0,0
19.01.2020 11:00:00 1,5 0,2 4 2 - - ENE 1046,6 20 60 0,2
19.01.2020 10:00:00 -0,1 -0,7 2 1 - - N 1045,7 13 60 0,0
19.01.2020 09:00:00 -3,1 -3,5 4 2 - - ENE 1045,1 11 0 0,0
19.01.2020 08:00:00 -4,2 -4,8 5 3 - - NE 1043,9 15 0 0,0
19.01.2020 07:00:00 -2,5 -2,9 9 5 - - NNW 1043,1 17 0 0,0
19.01.2020 06:00:00 -3,2 -3,5 4 2 - - ESE 1042,4 11 0 0,0
19.01.2020 05:00:00 -2,6 -3,0 2 1 - - WSW 1041,7 11 0 0,0
19.01.2020 04:00:00 -2,4 -2,9 4 2 - - NW 1040,9 14 0 0,0
19.01.2020 03:00:00 -1,6 -2,0 2 1 - - E 1040,5 10 0 0,0
19.01.2020 02:00:00 -0,7 -1,1 4 2 - - NNE 1039,7 17 0 0,0
19.01.2020 01:00:00 -0,9 -1,2 5 3 - - NNE 1039,1 17 0 0,0
19.01.2020 00:00:00 -1,3 -1,6 4 2 - - NNE 1038,5 11 - 0,0
18.01.2020 23:00:00 -1,2 -2,0 2 1 - - ESE 1037,4 10 0 0,0
18.01.2020 22:00:00 1,3 0,2 11 6 - - NNW 1036,5 16 0 0,0
18.01.2020 21:00:00 0,3 -0,5 4 2 - - NE 1035,7 17 0 0,0
18.01.2020 20:00:00 0,5 -0,5 4 2 - - N 1035,0 17 0 0,0
18.01.2020 19:00:00 1,4 -1,0 4 2 - - NE 1033,8 17 0 0,0
18.01.2020 18:00:00 1,6 -0,1 2 1 - - NNE 1032,6 22 0 0,0
18.01.2020 17:00:00 3,8 0,1 5 3 - - NNE 1031,7 27 18 0,0
18.01.2020 16:00:00 6,1 2,1 5 3 - - NNE 1030,6 25 54 0,0
18.01.2020 15:00:00 5,6 5,4 4 2 - - N 1030,0 16 60 0,0
18.01.2020 14:00:00 3,8 3,7 2 1 - - WSW 1029,8 - 30 0,0
18.01.2020 13:00:00 2,6 2,6 4 2 - - ENE 1029,6 0,2 0 0,0
18.01.2020 12:00:00 0,7 0,7 4 2 - - NNE 1029,4 0,1 0 0,2
18.01.2020 11:00:00 -0,4 -0,5 2 1 - - N 1029,3 0,2 0 0,0
18.01.2020 10:00:00 -1,2 -1,3 2 1 - - NNE 1028,4 0,1 0 0,0
18.01.2020 09:00:00 -1,8 -1,9 2 1 - - NNW 1027,7 0,2 0 0,0
18.01.2020 08:00:00 -2,3 -2,5 4 2 - - NE 1027,1 0,3 0 0,0
18.01.2020 07:00:00 -1,9 -2,1 4 2 - - NNE 1026,7 0,3 0 0,0
18.01.2020 06:00:00 -1,0 -1,3 4 2 - - NE 1026,4 6 0 0,0
18.01.2020 05:00:00 -1,8 -2,2 2 1 - - NE 1025,8 9 0 0,0
18.01.2020 04:00:00 -0,8 -1,1 4 2 - - ESE 1024,9 13 0 0,0
18.01.2020 03:00:00 -0,6 -1,1 5 3 - - ENE 1024,6 21 0 0,0
18.01.2020 02:00:00 0,2 -0,8 2 1 - - W 1024,1 22 0 0,0
18.01.2020 01:00:00 1,6 0,3 8 4 - - W 1023,6 28 0 0,0
18.01.2020 00:00:00 2,1 1,1 4 2 - - E 1022,8 30 - 0,0
17.01.2020 23:00:00 3,0 1,8 5 3 - - WSW 1021,9 27 0 0,0
17.01.2020 22:00:00 3,2 2,0 2 1 - - NE 1020,9 26 0 0,0
17.01.2020 21:00:00 3,3 1,7 4 2 - - WSW 1020,2 22 0 0,0
17.01.2020 20:00:00 2,8 1,0 8 4 - - SSW 1019,4 30 0 0,2
17.01.2020 19:00:00 4,1 2,3 15 8 - - WSW 1018,6 28 0 0,4
17.01.2020 18:00:00 5,3 1,8 18 10 - - SW 1017,7 26 0 0,0
17.01.2020 17:00:00 4,6 1,6 13 7 - - WSW 1017,2 29 12 0,0
17.01.2020 16:00:00 6,8 1,9 16 9 - - W 1016,5 27 42 0,0
17.01.2020 15:00:00 6,6 2,6 18 10 48 26 WSW 1016,1 24 6 0,0
17.01.2020 14:00:00 8,8 3,2 26 14 - - WSW 1015,4 22 54 0,0
17.01.2020 13:00:00 7,4 5,2 8 4 - - WNW 1015,6 30 18 0,2
17.01.2020 12:00:00 7,1 4,1 11 6 - - WNW 1015,2 27 18 0,0
17.01.2020 11:00:00 6,0 3,7 13 7 - - W 1014,5 30 24 0,0
17.01.2020 10:00:00 5,5 3,1 26 14 - - W 1013,3 6 6 0,4
17.01.2020 09:00:00 6,1 3,5 18 10 - - W 1011,8 24 0 0,0
17.01.2020 08:00:00 6,3 3,5 28 15 52 28 W 1009,8 11 0 0,0
17.01.2020 07:00:00 7,4 5,0 18 10 - - WSW 1008,1 26 0 0,0
17.01.2020 06:00:00 7,3 5,4 15 8 - - SSW 1007,1 21 0 0,0
17.01.2020 05:00:00 7,9 5,8 13 7 - - SSW 1006,8 15 0 0,0
17.01.2020 04:00:00 8,4 6,5 13 7 - - SW 1006,8 17 0 1,4
17.01.2020 03:00:00 8,9 6,5 15 8 - - SSW 1006,9 21 0 1,0
17.01.2020 02:00:00 9,7 7,4 16 9 - - S 1006,7 19 0 0,2
17.01.2020 01:00:00 10,4 7,9 16 9 - - SSW 1007,4 13 0 0,0
17.01.2020 00:00:00 10,4 8,5 18 10 - - SSW 1007,5 11 - 0,0
16.01.2020 23:00:00 9,8 7,9 15 8 - - SSW 1007,9 14 0 0,0
16.01.2020 22:00:00 9,8 7,8 13 7 - - SSW 1008,0 12 0 0,0
16.01.2020 21:00:00 10,1 7,8 16 9 - - SSW 1007,8 11 0 0,0
16.01.2020 20:00:00 9,9 7,4 18 10 - - SW 1007,8 14 0 0,0
16.01.2020 19:00:00 10,7 7,7 15 8 - - SSW 1007,3 15 0 0,0
16.01.2020 18:00:00 11,5 8,3 26 14 48 26 SW 1006,5 12 0 0,0
16.01.2020 17:00:00 12,3 10,0 28 15 52 28 SSW 1005,4 10 0 0,0
16.01.2020 16:00:00 12,3 11,3 34 18 55 30 SSW 1004,9 4,4 0 0,8
16.01.2020 15:00:00 11,1 10,4 39 21 67 36 S 1004,6 2,3 0 0,4
16.01.2020 14:00:00 11,3 9,9 41 22 65 35 S 1004,7 3,1 0 3,6
16.01.2020 13:00:00 11,1 9,4 41 22 63 34 S 1006,4 7 0 1,4
16.01.2020 12:00:00 11,2 9,3 35 19 57 31 S 1007,5 13 0 1,0
16.01.2020 11:00:00 10,3 9,1 37 20 61 33 SSE 1008,9 12 0 0,8
16.01.2020 10:00:00 10,1 8,5 29 16 48 26 SSE 1010,0 3,7 0 0,8
16.01.2020 09:00:00 10,2 7,9 28 15 - - SE 1011,2 15 0 0,0
16.01.2020 08:00:00 9,9 7,2 28 15 - - SSE 1012,3 18 0 0,0
16.01.2020 07:00:00 9,6 6,9 26 14 - - S 1013,0 16 0 0,0
16.01.2020 06:00:00 9,5 6,4 28 15 46 25 S 1013,9 8 0 0,0
16.01.2020 05:00:00 9,6 6,7 21 11 - - S 1014,7 7 0 0,0
16.01.2020 04:00:00 9,6 6,6 26 14 - - S 1015,2 5 0 0,0
16.01.2020 03:00:00 9,4 6,7 22 12 - - S 1016,2 6 0 0,0
16.01.2020 02:00:00 9,5 6,3 21 11 - - S 1016,1 7 0 0,0
16.01.2020 01:00:00 8,7 5,6 15 8 - - S 1016,5 7 0 0,0
16.01.2020 00:00:00 7,8 5,4 9 5 - - S 1016,5 9 - 0,0
15.01.2020 23:00:00 7,7 5,0 9 5 - - S 1016,5 13 0 0,0
15.01.2020 22:00:00 8,2 5,3 15 8 - - SW 1016,1 4,0 0 0,0
15.01.2020 21:00:00 8,3 5,2 18 10 - - SSW 1015,7 4,1 0 0,0
15.01.2020 20:00:00 7,1 4,2 15 8 - - SSW 1015,5 5 0 0,0
15.01.2020 19:00:00 7,7 4,6 15 8 - - SSW 1015,0 4,1 0 0,0
15.01.2020 18:00:00 7,4 3,4 16 9 - - SW 1013,9 5 0 0,0
15.01.2020 17:00:00 7,7 2,7 15 8 - - SW 1012,8 4,2 6 0,0
15.01.2020 16:00:00 8,7 2,6 22 12 46 25 WSW 1011,7 9 54 0,0
15.01.2020 15:00:00 9,8 4,0 21 11 - - WSW 1010,3 9 54 0,0
15.01.2020 14:00:00 9,8 2,9 35 19 54 29 WSW 1009,4 15 60 0,0
15.01.2020 13:00:00 9,8 4,6 29 16 - - WSW 1008,5 10 60 0,0
15.01.2020 12:00:00 9,6 3,7 22 12 - - WSW 1007,6 14 60 0,0
15.01.2020 11:00:00 9,2 5,1 13 7 - - SW 1006,6 5 30 0,0
15.01.2020 10:00:00 7,7 4,6 15 8 - - SW 1005,4 5 0 0,0
15.01.2020 09:00:00 7,5 5,5 13 7 - - SSW 1003,4 5 0 0,0
15.01.2020 08:00:00 7,5 6,0 13 7 - - SSW 1002,6 5 0 0,0
15.01.2020 07:00:00 7,6 6,0 13 7 - - S 1001,3 6 0 0,0
15.01.2020 06:00:00 7,4 5,8 11 6 - - S 1000,9 5 0 0,0
15.01.2020 05:00:00 7,6 5,6 13 7 - - SSW 1000,1 5 0 0,0
15.01.2020 04:00:00 7,7 5,9 11 6 - - SSW 999,6 45 0 0,0
15.01.2020 03:00:00 7,3 6,5 2 1 - - SW 998,8 40 0 0,2
15.01.2020 02:00:00 7,5 6,9 2 1 - - W 998,4 24 0 0,6
15.01.2020 01:00:00 7,6 7,0 5 3 - - W 997,8 4,9 0 0,4
15.01.2020 00:00:00 8,1 7,3 21 11 - - WNW 996,4 2,1 - 1,6
14.01.2020 23:00:00 9,9 9,0 8 4 - - SW 994,6 6 0 0,2
14.01.2020 22:00:00 10,4 9,6 9 5 - - SW 994,2 7 0 0,4
14.01.2020 21:00:00 10,9 9,8 18 10 - - SSW 994,3 9 0 0,2
14.01.2020 20:00:00 11,3 9,9 22 12 - - SW 993,9 8 0 0,2
14.01.2020 19:00:00 11,5 9,9 22 12 - - SW 993,2 6 0 0,2
14.01.2020 18:00:00 11,5 10,5 28 15 67 36 WSW 991,9 7 0 4,4
14.01.2020 17:00:00 13,1 11,7 46 25 70 38 SW 991,0 2,4 0 1,2
14.01.2020 16:00:00 13,2 11,9 48 26 93 50 SW 990,5 1,5 0 0,4
14.01.2020 15:00:00 13,4 12,1 52 28 78 42 SW - - 0 0,6
14.01.2020 14:00:00 13,5 12,2 50 27 74 40 SW 989,9 4,9 0 0,4
14.01.2020 13:00:00 13,5 12,2 48 26 78 42 SW 990,0 2,0 0 0,6
14.01.2020 12:00:00 12,6 12,0 37 20 54 29 SSW 990,5 2,5 0 1,4
14.01.2020 11:00:00 10,5 10,0 34 18 54 29 S 992,4 8 0 1,8
14.01.2020 10:00:00 9,9 8,1 26 14 - - S 993,5 9 0 0,0
14.01.2020 09:00:00 9,9 6,5 29 16 - - SSW 995,3 19 0 0,0
14.01.2020 08:00:00 9,4 6,6 16 9 - - S 996,3 13 0 0,0
14.01.2020 07:00:00 8,6 5,9 16 9 - - S 997,0 15 0 0,0
14.01.2020 06:00:00 8,0 5,5 13 7 - - S 997,0 17 0 0,0
14.01.2020 05:00:00 8,2 4,8 18 10 - - SW 997,2 18 0 0,0
14.01.2020 04:00:00 6,2 3,6 11 6 - - S 996,9 16 0 0,0
14.01.2020 03:00:00 7,9 3,7 26 14 - - SW 997,0 16 0 0,0
14.01.2020 02:00:00 8,2 4,2 13 7 - - SSW 996,6 15 0 0,0
14.01.2020 01:00:00 8,0 4,9 13 7 - - SSW 996,9 14 0 0,0
14.01.2020 00:00:00 8,5 4,9 16 9 - - SSW 996,9 14 - 0,0
13.01.2020 23:00:00 7,3 4,4 11 6 - - S 996,6 15 0 0,0
13.01.2020 22:00:00 8,2 6,5 13 7 - - S 996,2 9 0 0,0
13.01.2020 21:00:00 7,6 5,7 16 9 - - S 996,2 17 0 0,0
13.01.2020 20:00:00 7,0 4,7 15 8 - - SSW 996,1 26 0 0,2

tt = Température de l'air
td = dewpoint
ff = Vitesse du vent
fx = gusts
dd = Direction du vent
ppp = reduced air pressure
vv = visibility
sd = Ensoleillement
rr = Quantités de précipitations

stations d'obs. à proximité